Weather Service Report


653 
ASCA44 KEWX 011320
RWRMX 

LATIN AMERICA AND CARIBBEAN REGIONAL WEATHER ROUNDUP
NATIONAL WEATHER SERVICE AUSTIN/SAN ANTONIO TX
800 AM CDT WED JUL 01 2015

NOTE: "FAIR" INDICATED FEW OR NO CLOUDS BELOW 12,000 FEET WITH NO
SIGNIFICANT WEATHER AND/OR OBSTRUCTIONS TO VISIBILITY.

BAJA CALIFORNIA
  
CITY           SKY/WX    TMP DP  RH WIND       PRES   REMARKS
LORETO         PTCLDY    81  72  74 CALM      29.81                   
TIJUANA        CLOUDY    68  63  83 CALM      29.92R                  

NORTHWESTERN MEXICO
  
CITY           SKY/WX    TMP DP  RH WIND       PRES   REMARKS
DURANGO        MOCLDY    59  59 100 CALM      30.24                   
CD. JUAREZ     PTCLDY    72  48  43 CALM      30.06                   
LOS MOCHIS     PTCLDY    79  68  69 CALM      29.87                   

NORTHEASTERN MEXICO
  
CITY           SKY/WX    TMP DP  RH WIND       PRES   REMARKS
CHIHUAHUA      MOCLDY    61  52  72 S5        30.16                   
MATAMOROS      LGT RAIN  73  72  94 S12       30.04  FOG              
MONCLOVA       PTSUNNY   72  66  83 CALM      30.01                   
MONTERREY      PTSUNNY   72  66  83 W3        30.00F                  
NUEVO LAREDO   PTSUNNY   77  72  83 CALM      30.01                   
PIEDRAS NEGRAS MOSUNNY   72  70  94 SE5       30.05  FOG              
REYNOSA        CLOUDY    72  68  88 E14       30.01                   
SALTILLO       FOG       63  57  82 CALM      30.20S VSB 1            
TORREON        PTSUNNY   73  64  73 CALM      30.10R                  
CD. VICTORIA   CLOUDY    72  72 100 W5        30.00                   

WESTERN MEXICO
  
CITY           SKY/WX    TMP DP  RH WIND       PRES   REMARKS
AGUASCALIENTES MOCLDY    55  52  88 S9        30.23                   
GUADALAJARA    PTCLDY    63  59  88 CALM      30.20                   
MANZANILLO     CLEAR     81  72  74 N6        29.83                   
MAZATLAN       PTCLDY    72  66  83 N9        29.88R                  
P. VALLARTA    MOCLDY    77  75  94 CALM      29.88R                  
ZACATECAS        N/A    N/A N/A N/A MISG        N/A                   

CENTRAL MEXICO
  
CITY           SKY/WX    TMP DP  RH WIND       PRES   REMARKS
CUERNAVACA     PTSUNNY   64  63  94 CALM      30.15R                  
MEXICO CITY    CLOUDY    59  54  82 NE2       30.32R                  
POZA RICA      CLOUDY    75  73  94 N7        29.99R                  
PUEBLA         PTSUNNY   55  54  94 CALM      30.33R                  
QUERETARO      CLOUDY    59  57  94 CALM      30.31R FOG              
S. LUIS POTOSI   N/A    N/A N/A N/A MISG        N/A                   
TAMPICO        CLOUDY    75  73  94 E16       29.98R                  
TOLUCA         PTSUNNY   52  50  93 CALM      30.39R FOG              

SOUTHERN MEXICO
  
CITY           SKY/WX    TMP DP  RH WIND       PRES   REMARKS
ACAPULCO       MOSUNNY   81  73  78 NW5       29.87R                  
B. DE HUATULCO CLOUDY    77  64  65 CALM      29.93S                  
OAXACA         PTSUNNY   61  57  88 CALM      30.22R                  
P. ESCONDIDO   MOSUNNY   77  70  78 E9        29.95R                  
VERACRUZ       PTSUNNY   77  75  94 NW5       29.93R                  
ZIHUATANEJO    CLEAR     79  73  83 CALM      29.87R                  

YUCATAN PENINSULA
  
CITY           SKY/WX    TMP DP  RH WIND       PRES   REMARKS
CAMPECHE       MOSUNNY   79  75  89 E12       29.96R                  
CANCUN         PTSUNNY   82  79  89 N2        30.05S HX  93           
CHETUMAL       MOSUNNY   82  75  78 E7        30.01R                  
CD. DEL CARMEN MOSUNNY   81  73  78 SE22      29.97R                  
COZUMEL        MOSUNNY   77  77 100 CALM      30.04R                  
MERIDA         PTSUNNY   79  75  89 E10       30.03R                  
MINATITLAN     MOSUNNY   79  68  69 N12       29.86R                  
TAPACHULA      PTSUNNY   79  72  78 CALM      29.87R                  
TUX. GUTIERREZ MOSUNNY   70  66  88 CALM      29.98R                  
VILLAHERMOSA   MOSUNNY   79  73  83 E22       29.93R                  

CENTRAL AMERICA
  
CITY           SKY/WX    TMP DP  RH WIND       PRES   REMARKS
BELIZE CITY    MOSUNNY   82  77  83 E12G23    29.98S HX  91           
MANAGUA        MOSUNNY   79  72  78 E5        29.89R                  

CARIBBEAN
  
CITY           SKY/WX    TMP DP  RH WIND       PRES   REMARKS
ARUBA          MOSUNNY   86  77  74 E23G35    29.94S HX  97           
CURACAO        MOSUNNY   84  75  74 SE16      30.00S HX  92           
KINGSTON       MOSUNNY   86  72  62 E21       30.00S HX  92           
NASSAU         CLOUDY    84  75  74 SE9       30.18F HX  92           
SAN JUAN       MOSUNNY   82  77  83 E14G23    30.13S HX  91           
SANTO DOMINGO  MOSUNNY   84  75  74 E10       30.09R HX  92           
ST. CROIX      CLOUDY    82  73  74 E21G30    30.11                   
ST. KITTS      MOSUNNY   84  75  74 E22       30.12S HX  92           
ST. MAARTEN    MOSUNNY   84  72  65 E16       30.12S                  
ST. THOMAS     CLOUDY    84  73  70 E17       30.12R HX  91           

$$


Return to Home page


Western Regional Climate Center, wrcc@dri.edu